Location: Igri�s
(42.2144°N, 0.4320°W)
Time: 18:28:54
(UTC+00:00)

Cosmos 44 Rocket - Pass Details

Date: 13 August 2020
Orbit: 647 x 743 km, 65.1° (Epoch: 19 September)

Event Time Altitude Azimuth Distance (km) Brightness Sun altitude
Rises 22:54:55 0° 331° (NNW) 3,098 7.8 -31.1°
Reaches altitude 10° 22:57:19 10° 336° (NNW) 2,191 6.7 -31.3°
Enters shadow 23:00:57 40° 10° (N) 1,051 4.5 -31.5°
